Location: C�mpuri de-Sus
(45.9500°N, 22.5500°E)
Time: 04:44:43
(UTC+00:00)

H-2A R/B - Pass Details

Date: 24 October 2021
Orbit: 732 x 837 km, 98.2° (Epoch: 30 November)

Event Time Altitude Azimuth Distance (km) Brightness Sun altitude
Rises 15:54:08 0° 148° (SSE) 3,346 5.1 -5.2°
Reaches altitude 10° 15:56:31 10° 143° (SE) 2,427 4.4 -5.6°
Maximum altitude 16:01:43 50° 70° (ENE) 1,054 2.4 -6.5°
Drops below altitude 10° 16:06:59 10° 356° (N) 2,462 4.6 -7.4°
Sets 16:09:25 0° 352° (N) 3,398 5.3 -7.8°
